sat.trackr.live / text

‹ back to catalog

STARLINK-2385

NORAD 47804 · 2021-018T

PAYLOAD ACTIVE UNKNOWN

§ Identity

Operator
Country
US
Launch date
2021-03-11
Launch site
AFETR
Launch vehicle
Mass (kg)
RCS (m²)

Purposes: comms

External: N2YO · Heavens-Above · Gunter

§ Orbital elements

Epoch: 2026-05-24T16:23:48.888672Z

Period
94.01 min
Inclination
53.1574°
Eccentricity
0.0001184
Mean motion
15.31717029 rev/d
Perigee alt
469.9 km
Apogee alt
471.5 km
Semi-major
6,848.8 km
B*
1.4767e-4
RAAN
236.7314°
Arg perigee
89.8768°
Mean anomaly
270.2369°
Rev number
28,853

§ Raw data

STARLINK-23851 47804U 21018T   26144.68320473  .00004222  00000+0  14767-3 0  99922 47804  53.1574 236.7314 0001184  89.8768 270.2369 15.31717029288537

JSON: /api/v1/satellites/47804 · /tle

For live sub-satellite position, see the globe view (requires WebGL).

§ Visibility from observer

Set your observer location to see the next 7 days of passes ≥ 10°. The values pass through the URL so the page stays shareable.

No JS? Fill the form by hand. The geolocation button needs JavaScript.